* Astronomy

Members Login
Username 
 
Password 
    Remember Me  
Post Info TOPIC: Asteroid 2009 BH81


L

Posts: 131433
Date:
Asteroid 2009 BH81
Permalink  
 


Orbital elements:
2009 BH81 Earth MOID = 0.4049 AU
Epoch 2011 Feb. 8.0 TT = JDT 2455600.5 MPC
M 301.07383 (2000.0) P Q
n 0.47283358 Peri. 78.38423 -0.48082576 +0.82128857
a 1.6317884 Node 154.32704 -0.76750792 -0.56356192
e 0.2749648 Incl. 45.13611 +0.42395540 -0.08878653
P 2.08 H 19.6 G 0.15 U 2

MPEC 2011 - C70


__________________
Page 1 of 1  sorted by
 
Quick Reply

Please log in to post quick replies.



Create your own FREE Forum
Report Abuse
Powered by ActiveBoard